Regional Weather Roundup
Issued by NWS

Home | Current Version | Previous Version | Graphics & Text | Print | Product List | Glossary On
Versions: 1 2 3 4 5 6 7 8 9 10 11 12 13 14 15 16 17 18 19 20 21 22 23 24 25 26 27 28 29 30 31 32 33 34 35 36 37 38 39 40 41 42 43 44 45 46 47 48 49 50
000
ASUS45 KBOU 291810
RWRCO

WEATHER ROUNDUP FOR COLORADO
NATIONAL WEATHER SERVICE DENVER/BOULDER CO
1200 PM MDT MON JUN 29 2015

NOTE: "FAIR" INDICATES FEW OR NO CLOUDS BELOW 12000 FEET WITH NO
SIGNIFICANT WEATHER AND/OR OBSTRUCTIONS TO VISIBILITY.

COZ001>005-013-030-031-291900-
...NORTHWEST COLORADO...

CITY           SKY/WX    TMP DP  RH WIND       PRES   REMARKS
CRAIG          SUNNY     86  44  23 NE5       30.29S
HAYDEN         SUNNY     81  43  26 S6        30.31F
MEEKER         SUNNY     84  49  29 S7        30.29F
MOUNT WERNER   NOT AVBL
STEAMBOAT SPGS SUNNY     78  49  35 SW5       30.34S
WALDEN         SUNNY     73  43  33 SE9       30.44S
$$

COZ006>008-011-291900-
...WEST CENTRAL VALLEYS...

CITY           SKY/WX    TMP DP  RH WIND       PRES   REMARKS
GRAND JUNCTION SUNNY     90  43  19 SE6       30.15F
MONTROSE       SUNNY     90  46  21 N8        30.24F
EAGLE          MOSUNNY   81  45  28 CALM      30.32F
RIFLE          SUNNY     87  43  21 W5        30.21F
DELTA          SUNNY     91  43  18 S3        30.19F
NUCLA          SUNNY     86  43  22 N7        30.28F
$$

COZ017>023-064>068-291900-
...SOUTHWEST COLORADO...

CITY           SKY/WX    TMP DP  RH WIND       PRES   REMARKS
DURANGO        SUNNY     83  42  23 SW8       30.30F
CORTEZ         SUNNY     88  43  20 SW8       30.24F
PAGOSA SPRINGS SUNNY     77  40  27 CALM      30.39F
TELLURIDE      MOSUNNY   75  38  25 W13G18    30.53S
WOLF CREEK PAS NOT AVBL
$$

COZ009-010-012-014-032>034-037-058>063-291900-
...CENTRAL COLORADO...

CITY           SKY/WX    TMP DP  RH WIND       PRES   REMARKS
ASPEN          SUNNY     80  42  25 VRB6      30.39F
BUENA VISTA    MOSUNNY   75  43  31 S3        30.38F
COPPER MTN     PTSUNNY   64  36  34 W8G18     30.75R
BERTHOUD PASS  FAIR      54  43  66 MISG      30.79S
COTTONWOOD PAS NOT AVBL
GUNNISON       SUNNY     73  46  38 SW6       30.42F
KREMMLING      SUNNY     79  37  22 N8        30.39F
LEADVILLE      PTSUNNY   70  37  29 NW7       30.54S
SALIDA         MOSUNNY   78  42  28 SE3       30.44S
SUNLIGHT       SUNNY     68  46  45 W3        30.68R
WILKERSON PASS PTSUNNY   61  41  48 E5        30.71R
$$

COZ069>075-291900-
...SAN LUIS VALLEY/SANGRE DE CRISTO MOUNTAINS...

CITY           SKY/WX    TMP DP  RH WIND       PRES   REMARKS
ALAMOSA        MOSUNNY   73  48  41 VRB5      30.38F
LA VETA PASS   MOSUNNY   66  41  39 MISG      30.58S
SAGUACHE       MOSUNNY   73  50  43 SE9       30.40F
$$

COZ035-036-038>040-291900-
...NORTHERN COLORADO FRONT RANGE...

CITY           SKY/WX    TMP DP  RH WIND       PRES   REMARKS
DENVER INTL AP MOSUNNY   81  54  39 N5        30.26S
DMNS CITY PARK   N/A     83  50  32 E3G9      30.26S
AURORA         MOSUNNY   79  53  39 VRB6      30.29R
FRONT RANGE AP MOSUNNY   81  57  44 NW6       30.28S
ERIE MUNI ARPT SUNNY     81  48  31 NE6       30.25S
BOULDER MUN AP SUNNY     81  50  34 E5        30.26S
CENTENNIAL     MOSUNNY   79  51  37 N8        30.30R
BROOMFIELD       N/A     81  50  34 NW5       30.29R
FORT COLLINS   SUNNY     81  55  41 N6        30.24F
LONGMONT       SUNNY     85  52  32 N3        30.25F
$$

COZ041-046-047-076>085-087-088-291900-
...PIKES PEAK/PALMER DIVIDE AND SOUTHERN FOOTHILLS...

CITY           SKY/WX    TMP DP  RH WIND       PRES   REMARKS
COLO. SPRINGS  PTSUNNY   75  53  46 NE3       30.34R
A. F. ACADEMY  MOSUNNY   76  53  44 E1        30.34S
ELLICOTT       MOSUNNY  N/A N/A N/A SE3       30.32R
FALCON         MOSUNNY   75  54  48 NE5       30.39R
FORT CARSON    MOSUNNY   75  55  49 E6        30.30F
LIMON          SUNNY     74  57  55 S8        30.27F
MONUMENT HILL    N/A     70  50  49 N5          N/A
TRINIDAD       SUNNY     83  44  25 MISG      30.26F
$$

COZ042>045-048>051-090-091-291900-
...NORTHEAST COLORADO...

CITY           SKY/WX    TMP DP  RH WIND       PRES   REMARKS
GREELEY ARPT   SUNNY     81  55  41 NW3       30.23S
AKRON          MOSUNNY   82  53  36 VRB3      30.21R
BURLINGTON     SUNNY     84  49  29 SE13G23   30.18R
WRAY           MOSUNNY   87  49  26 N6        30.14S
STERLING       MOSUNNY   88  55  33 E5        30.15F
HOLYOKE        MOSUNNY   82  59  44 N12       30.16S
FORT MORGAN    MOSUNNY   82 -13   2 W3        30.22R
$$

COZ086-089-092>099-291900-
...SOUTHEAST COLORADO...

CITY           SKY/WX    TMP DP  RH WIND       PRES   REMARKS
PUEBLO         MOSUNNY   80  57  45 SE7       30.22S
LA JUNTA       CLOUDY    71  60  68 NE13      30.24R
LAMAR          LGT RAIN  74  60  61 N5        30.20R
SPRINGFIELD      N/A     79  51  37 NE13      30.20R
$$



USA.gov is the U.S. government's official web portal to all federal, state and local government web resources and services.